Location: Caltech
(34.1382°N, 118.1253°W)
Time: 19:52:30
(UTC-07:00)

Cosmos 1980 Rocket - Visible Passes

Search period start: 04 May 2016 00:00
Search period end: 14 May 2016 00:00
Orbit: 831 x 848 km, 71.0° (Epoch: 04 May)

Date Brightness Start Highest point End Pass type
(mag) Time Alt. Az. Time Alt. Az. Time Alt. Az.
04 May 3.4 21:36:18 10° SW 21:41:35 42° WNW 21:46:53 10° N visible
05 May 3.3 21:20:34 10° SW 21:25:54 45° WNW 21:31:16 10° N visible
06 May 3.2 21:04:51 10° SW 21:10:14 48° WNW 21:15:39 10° N visible
07 May 3.1 20:49:08 10° SW 20:54:34 52° WNW 21:00:02 10° N visible
08 May 3.0 20:33:25 10° SW 20:38:54 56° WNW 20:44:24 10° NNE visible
09 May 2.9 20:17:43 10° SSW 20:23:14 60° WNW 20:28:46 10° NNE visible
10 May 4.3 05:15:36 10° N 05:20:36 32° ENE 05:25:37 10° SE visible
10 May 2.8 20:02:02 10° SSW 20:07:34 64° WNW 20:13:09 10° NNE visible
11 May 4.4 05:00:01 10° N 05:04:56 30° ENE 05:09:50 10° ESE visible
12 May 4.4 04:44:25 10° N 04:49:15 29° ENE 04:54:02 10° ESE visible
13 May 4.5 04:28:51 10° N 04:33:33 27° ENE 04:38:15 10° ESE visible
